Tracking 29892 objects as of 21-Nov-2024
HD Live streaming from Space Station
objects crossing your sky now

STARLINK-3311

Track STARLINK-3311 now!
10-day predictions
STARLINK-3311 is classified as:


NORAD ID: 50849
Int'l Code: 2022-001AY
Perigee: 545.9 km
Apogee: 547.9 km
Inclination: 53.2 °
Period: 95.4 minutes
Semi major axis: 6917 km
RCS: Unknown
Launch date: January 6, 2022
Source: United States (US)
Launch site: AIR FORCE EASTERN TEST RANGE (AFETR)
Your satellite tracking list
Your tracking list is empty




NASA's NSSDC Master Catalog

Two Line Element Set (TLE):
1 50849U 22001AY  24324.79361525 -.00000087  00000-0  12635-4 0  9991
2 50849  53.2157 151.0150 0001411  80.6137 279.5015 15.08842679159774
Source of the keplerian elements: AFSPC